DW3384 Weather Reports


time (UTC)temp
C
wind
direction
speed
KPH
gust
KPH
rain 1hr
cm
rain 24hr
cm
rain mn
cm
humidity
%
barometer
mb
20260507144525 10 259 14.5 29.0 0.00 0.20 0.20 79 1015.9
20260507143015 9 262 11.3 24.1 0.00 0.20 0.20 80 1016.1
20260507141513 8 259 14.5 25.7 0.00 0.20 0.20 81 1016.2
20260507140012 7 264 14.5 27.4 0.00 0.20 0.20 84 1016.4
20260507134512 7 247 9.7 22.5 0.00 0.20 0.20 84 1016.4
20260507133010 6 255 8.0 14.5 0.00 0.20 0.20 85 1016.7
20260507131509 6 240 3.2 12.9 0.00 0.20 0.20 85 1016.6
20260507130008 5 257 6.4 14.5 0.00 0.20 0.20 85 1016.7
20260507124510 5 280 9.7 14.5 0.00 0.20 0.20 85 1016.7
20260507123009 4 265 3.2 11.3 0.00 0.20 0.20 85 1016.5
20260507121506 3 252 6.4 9.7 0.00 0.20 0.20 84 1016.4
20260507120006 3 268 8.0 14.5 0.00 0.20 0.20 84 1016.5
20260507114503 4 256 6.4 12.9 0.00 0.20 0.20 84 1016.5
20260507113101 4 265 6.4 9.7 0.00 0.20 0.20 84 1016.4
20260507111602 4 287 6.4 12.9 0.00 0.20 0.20 84 1016.4
20260507110057 4 272 4.8 9.7 0.00 0.20 0.20 84 1016.4
20260507104553 5 257 4.8 9.7 0.00 0.20 0.20 84 1016.5
20260507103050 5 289 4.8 11.3 0.00 0.20 0.20 84 1016.5
20260507101549 5 290 4.8 8.0 0.00 0.20 0.20 84 1016.6
20260507100047 5 281 3.2 8.0 0.00 0.20 0.20 84 1016.6
20260507094544 6 281 4.8 9.7 0.00 0.20 0.20 84 1016.7
20260507093047 6 282 4.8 8.0 0.00 0.20 0.20 84 1016.7
20260507091545 6 275 4.8 8.0 0.00 0.20 0.20 83 1016.7
20260507090040 6 294 3.2 6.4 0.00 0.20 0.20 83 1016.5
20260507084536 6 278 4.8 8.0 0.00 0.20 0.20 83 1016.9
20260507083034 6 288 3.2 9.7 0.00 0.20 0.20 83 1016.9
20260507081533 6 274 4.8 6.4 0.00 0.20 0.20 83 1017.0
20260507080032 6 311 3.2 9.7 0.00 0.20 0.20 83 1017.1
20260507074531 7 282 3.2 9.7 0.00 0.20 0.20 83 1017.6